Regional Weather Roundup
Issued by NWS State College, PA

Home | Current Version | Previous Version | Text Only | Print | Product List | Glossary Off
Versions: 1 2 3 4 5 6 7 8 9 10 11 12 13 14 15 16 17 18 19 20 21 22 23 24 25 26 27 28 29 30 31 32 33 34 35 36 37 38 39 40 41 42 43 44 45 46 47 48 49 50

000
ASUS41 KCTP 011010
RWRCTP

REGIONAL WEATHER ROUNDUP
NATIONAL WEATHER SERVICE STATE COLLEGE PA
600 AM EDT SUN MAY 01 2016

Note: "fair" indicates few or no clouds below 12,000 feet with no
significant weather and/or obstructions to visibility.

* = STATION THAT DOES NOT REPORT PRECIPITATION /E.G. RAIN...SNOW...ETC/
    THUNDER OR FOG.

PAZ002>004-007>009-013>016-020>023-029>032-011100-
WESTERN PENNSYLVANIA

CITY           SKY/WX    TMP DP  RH WIND       PRES   REMARKS
ERIE           CLOUDY    49  48  97 NE8       29.89F
MEADVILLE        N/A    N/A N/A N/A MISG      29.88F
FRANKLIN*      CLOUDY    52  48  87 S8        29.91F
NEW CASTLE     LGT RAIN  54  54 100 CALM      29.90S
BEAVER COUNTY  NOT AVBL
BUTLER*        CLOUDY    54  52  94 CALM      29.93F
PITTSBURGH INT CLOUDY    57  55  93 S5        29.90F FOG
PITTSBURGH     CLOUDY    57  55  93 S9        29.92R
INDIANA*       CLOUDY    54  52  94 S5        29.97S
LATROBE        CLOUDY    57  57 100 S5        29.94S
WASHINGTON CO* CLOUDY    61  57  88 SW6       29.93S
$$

PAZ004>006-010>012-017>019-024>028-033>037-041-042-045-046-049>053-011100-
CENTRAL PENNSYLVANIA

CITY           SKY/WX    TMP DP  RH WIND       PRES   REMARKS
BRADFORD       LGT RAIN  47  45  93 SE8       29.93F FOG
DUBOIS         LGT RAIN  48  46  93 SE7       29.93F
CLEARFIELD     LGT RAIN  49  46  90 CALM      29.98F
JOHNSTOWN      CLOUDY    50  46  86 S12       29.97S
ALTOONA        LGT RAIN  50  47  89 S7        30.01F
STATE COLLEGE  RAIN      48  46  93 S5        30.00F
WILLIAMSPORT   RAIN      48  45  89 E14G26    30.06F
SELINSGROVE    RAIN      48  44  86 SE6       30.09F FOG
FT INDIANTOWN  LGT RAIN  45  45  99 E6        30.13F
CAPITAL CITY   RAIN      48  45  89 SE14      30.12S FOG
HARRISBURG     RAIN      47  44  90 SE12      30.12S FOG
YORK           LGT RAIN  47  45  93 E6        30.11F
$$

PAZ038>040-043-044-047-048-054-055-060>062-067>071-011100-
EASTERN PENNSYLVANIA

CITY           SKY/WX    TMP DP  RH WIND       PRES   REMARKS
SCRANTON       LGT RAIN  45  41  86 E3        30.12F
MOUNT POCONO   LGT RAIN  40  35  83 SE8       30.13F
ALLENTOWN      LGT RAIN  48  38  68 CALM      30.18S
QUAKERTOWN*    CLOUDY    46  39  76 CALM      30.19R
READING        RAIN      46  41  82 VRB6      30.16S
LANCASTER      LGT RAIN  45  44  97 E8        30.14F FOG
COATESVILLE    LGT RAIN  45  45 100 E7        30.17F
POTTSTOWN      LGT RAIN  44  39  82 CALM      30.20R
BLUE BELL      CLOUDY    45  41  87 CALM      30.18S
DOYLESTOWN     LGT RAIN  45  39  79 CALM      30.18S
WILLOW GROVE   NOT AVBL
NORTH PHILA    CLOUDY    49  43  80 SE3       30.20S
PHILADELPHIA   LGT RAIN  49  42  77 E5        30.19S
$$




USA.gov is the U.S. government's official web portal to all federal, state and local government web resources and services.